NUUKSIO Weather Reports


Display with metric or nautical units.
time (UTC)temp
F
wind
direction
speed
MPH
gust
MPH
rain 1hr
in
rain 24hr
in
rain mn
in
humidity
%
barometer
mb
20260508104730 57 342 7.0 16.0 0.00 0.00 0.00 22 1026.4
20260508102729 56 335 6.0 13.0 0.00 0.00 0.00 23 1026.3
20260508100729 56 3 9.0 18.0 0.00 0.00 0.00 25 1026.2
20260508094729 55 355 9.0 17.0 0.00 0.00 0.00 27 1026.1
20260508092729 56 350 9.0 19.0 0.00 0.00 0.00 28 1026.1
20260508090729 55 318 9.0 19.0 0.00 0.00 0.00 29 1026.2
20260508084729 55 329 9.0 20.0 0.00 0.00 0.00 30 1026.3
20260508082729 54 344 9.0 19.0 0.00 0.00 0.00 31 1026.3
20260508080730 53 346 9.0 19.0 0.00 0.00 0.00 33 1026.3
20260508074729 52 350 8.0 20.0 0.00 0.00 0.00 33 1026.1
20260508072729 51 345 9.0 17.0 0.00 0.00 0.00 34 1026.0
20260508070730 51 326 8.0 15.0 0.00 0.00 0.00 36 1025.9
20260508064729 50 339 9.0 16.0 0.00 0.00 0.00 38 1025.7
20260508062729 49 344 10.0 21.0 0.00 0.00 0.00 39 1025.5
20260508060729 48 333 10.0 17.0 0.00 0.00 0.00 42 1025.3
20260508054729 47 336 9.0 16.0 0.00 0.00 0.00 47 1025.2
20260508052730 46 335 9.0 17.0 0.00 0.00 0.00 49 1025.0
20260508050729 44 339 9.0 17.0 0.00 0.00 0.00 53 1024.8
20260508044729 43 339 6.0 13.0 0.00 0.00 0.00 54 1024.6
20260508042729 42 335 6.0 11.0 0.00 0.00 0.00 58 1024.5
20260508040729 39 336 6.0 12.0 0.00 0.00 0.00 62 1024.2
20260508034729 38 336 6.0 12.0 0.00 0.00 0.00 64 1024.1
20260508032729 36 331 8.0 12.0 0.00 0.00 0.00 67 1023.9
20260508030728 35 326 7.0 12.0 0.00 0.00 0.00 69 1023.7
20260508024728 35 330 7.0 12.0 0.00 0.00 0.00 68 1023.5
20260508022728 35 331 8.0 13.0 0.00 0.00 0.00 68 1023.2
20260508020728 34 327 8.0 11.0 0.00 0.00 0.00 68 1023.0
20260508014728 34 326 6.0 11.0 0.00 0.00 0.00 69 1022.9
20260508010728 35 322 5.0 8.0 0.00 0.00 0.00 65 1022.4
20260508004728 36 330 5.0 9.0 0.00 0.00 0.00 62 1022.1
20260508002728 38 327 6.0 12.0 0.00 0.00 0.00 60 1021.8
20260508000728 38 323 7.0 13.0 0.00 0.00 0.00 60 1021.6
20260507234728 38 320 7.0 11.0 0.00 0.00 0.00 59 1021.3
20260507232728 38 316 7.0 11.0 0.00 0.00 0.00 59 1021.2
20260507230728 39 314 7.0 12.0 0.00 0.00 0.00 57 1020.8
20260507224727 40 311 7.0 12.0 0.00 0.00 0.00 55 1020.5
20260507222728 40 309 7.0 12.0 0.00 0.00 0.00 53 1020.3
20260507220727 41 310 7.0 13.0 0.00 0.00 0.00 51 1020.1
20260507214727 41 305 7.0 14.0 0.00 0.00 0.00 50 1019.9
20260507212727 42 306 8.0 12.0 0.00 0.00 0.00 49 1019.6
20260507210727 42 300 8.0 14.0 0.00 0.00 0.00 49 1019.3
20260507204727 41 305 7.0 11.0 0.00 0.00 0.00 48 1019.1
20260507202727 42 313 7.0 11.0 0.00 0.00 0.00 44 1018.8
20260507200728 42 307 7.0 12.0 0.00 0.00 0.00 45 1018.6
20260507194727 42 319 6.0 11.0 0.00 0.00 0.00 40 1018.2
20260507192727 42 303 6.0 8.0 0.00 0.00 0.00 40 1017.8
20260507190726 42 269 4.0 7.0 0.00 0.00 0.00 40 1017.7
20260507184727 44 230 3.0 6.0 0.00 0.00 0.00 38 1017.3
20260507182726 45 210 4.0 8.0 0.00 0.00 0.00 38 1017.2
20260507180726 46 199 6.0 11.0 0.00 0.00 0.00 41 1016.9
20260507174726 47 189 6.0 13.0 0.00 0.00 0.00 38 1016.8
20260507172726 48 186 5.0 10.0 0.00 0.00 0.00 36 1016.7
20260507170726 49 194 7.0 14.0 0.00 0.00 0.00 35 1016.5
20260507164727 50 195 6.0 13.0 0.00 0.00 0.00 34 1016.4
20260507162726 51 152 9.0 14.0 0.00 0.00 0.00 34 1016.2
20260507160726 51 141 9.0 18.0 0.00 0.00 0.00 31 1016.1
20260507154726 52 143 9.0 15.0 0.00 0.00 0.00 28 1015.9
20260507152725 53 153 8.0 17.0 0.00 0.00 0.00 29 1015.8
20260507150727 54 164 6.0 12.0 0.00 0.00 0.00 26 1015.7
20260507144727 55 152 5.0 10.0 0.00 0.00 0.00 26 1015.6
20260507142726 55 158 7.0 13.0 0.00 0.00 0.00 25 1015.6
20260507140726 55 154 6.0 12.0 0.00 0.00 0.00 25 1015.4
20260507134726 55 149 7.0 15.0 0.00 0.00 0.00 24 1015.4
20260507132725 57 151 7.0 11.0 0.00 0.00 0.00 25 1015.4
20260507130726 58 198 7.0 14.0 0.00 0.00 0.00 26 1015.4
20260507124725 58 158 5.0 11.0 0.00 0.00 0.00 24 1015.2
20260507122725 59 139 7.0 14.0 0.00 0.00 0.00 24 1015.2
20260507120726 59 142 6.0 13.0 0.00 0.00 0.00 23 1015.1
20260507114726 59 150 6.0 17.0 0.00 0.00 0.00 25 1015.2
20260507112724 59 181 4.0 11.0 0.00 0.00 0.00 22 1015.1
20260507110724 57 7 4.0 10.0 0.00 0.00 0.00 21 1015.2